Location: Newark
(52.4787°S, 179.0532°W)
Time: 01:55:08
(UTC+00:00)

Transit 2A Rocket - Pass Details

Date: 24 November 2019
Orbit: 594 x 909 km, 66.7° (Epoch: 15 December)

Event Time Altitude Azimuth Distance (km) Brightness Sun altitude
Rises 06:55:46 0° 232° (SW) 3,561 10.6 5.7°
Reaches altitude 10° 07:01:26 10° 274° (W) 2,561 8.9 4.9°
Maximum altitude 07:01:53 10° 278° (W) 2,549 8.7 4.9°
Drops below altitude 10° 07:02:20 10° 282° (WNW) 2,548 8.6 4.8°
Sets 07:07:48 0° 325° (NW) 3,389 8.4 4.1°
